Regional Weather Roundup
Issued by NWS Kansas City/Pleasant Hill, MO

Home | Current Version | Previous Version | Graphics & Text | Print | Product List | Glossary Off
Versions: 1 2 3 4 5 6 7 8 9 10 11 12 13 14 15 16 17 18 19 20 21 22 23 24 25 26 27 28 29 30 31 32 33 34 35 36 37 38 39 40 41 42 43 44 45 46 47 48 49 50

000
ASUS43 KEAX 181804
RWREAX

WEATHER ROUNDUP FOR EASTERN KANSAS AND NORTHWEST MISSOURI
NATIONAL WEATHER SERVICE KANSAS CITY/PLEASANT HILL MO
100 PM CDT FRI APR 18 2014

KSZ040-057-103>105-MOZ028-029-037-043-181900-
...KANSAS CITY METROPOLITAN AREA...

CITY           SKY/WX    TMP DP  RH WIND       PRES   REMARKS
K.C. INTL      SUNNY     61  39  44 S7        30.28F
6HR MIN TEMP:  37; 6HR MAX TEMP:  61;

K.C. DOWNTOWN  SUNNY     64  41  42 VRB3      30.28F
6HR MIN TEMP:  38; 6HR MAX TEMP:  64;

LEES SUMMIT    SUNNY     61  40  45 E5        30.29F
6HR MIN TEMP:  36; 6HR MAX TEMP:  62;

OLATHE - IXD   SUNNY     62  40  44 SE10      30.28F
6HR MIN TEMP:  32; 6HR MAX TEMP:  62;

OLATHE - OJC   SUNNY     61  41  47 VRB7      30.28F
6HR MIN TEMP:  35; 6HR MAX TEMP:  61;

LAWRENCE       SUNNY     63  41  44 SE8       30.27F

$$

MOZ001>008-011>017-020>025-030>033-038>040-044>046-053-054-181900-
...NORTHERN AND CENTRAL MISSOURI...

CITY           SKY/WX    TMP DP  RH WIND       PRES   REMARKS
ST. JOSEPH     SUNNY     60  36  40 SE8       30.28F
6HR MIN TEMP:  29; 6HR MAX TEMP:  61;

MOSBY          FAIR      59  41  51 S5        30.30F
WHITEMAN AFB   SUNNY     62  42  47 VRB1      30.29F
6HR MIN TEMP:  34; 6HR MAX TEMP:  62;

CLINTON        SUNNY     63  46  55 E3        30.30F
SEDALIA        SUNNY     62  43  49 SE3       30.30F
6HR MIN TEMP:  39; 6HR MAX TEMP:  63;

WARSAW         NOT AVBL
MARSHALL         N/A     59  46  63 CALM      30.34F
CHILLICOTHE      N/A     60  40  47 SE8       30.31F
6HR MIN TEMP:  30; 6HR MAX TEMP:  60;

MOBERLY        SUNNY     63  39  42 CALM      30.32F
KIRKSVILLE     SUNNY     60  36  40 SE8       30.32F
6HR MIN TEMP:  32; 6HR MAX TEMP:  60;


$$

MOZ041-047>049-056>058-063>065-088>090-097-181900-
...EASTERN AND SOUTHERN MISSOURI...

CITY           SKY/WX    TMP DP  RH WIND       PRES   REMARKS
ST. LOUIS INTL NOT AVBL
SPIRIT OF STL  SUNNY     64  42  44 N10       30.31F
COLUMBIA       SUNNY     64  44  48 VRB3      30.30F
JEFFERSON CITY SUNNY     66  41  40 CALM      30.29F
MEXICO         SUNNY     61  41  48 CALM      30.31F
HANNIBAL       SUNNY     64  32  29 N5        30.33F
ROLLA          SUNNY     65  42  43 VRB7      30.27F
LEBANON        SUNNY     70  37  30 E7        30.28F
OSAGE BEACH    SUNNY     64  41  42 E8        30.30F
SPRINGFIELD    SUNNY     67  40  37 S7        30.25F
BRANSON        MOSUNNY   66  37  34 SE6       30.26F
NEVADA         SUNNY     66  45  45 N7        30.29F
JOPLIN         SUNNY     65  42  43 S5        30.27F
WEST PLAINS    SUNNY     69  40  34 NE6       30.26F

$$

IAZ060-094-KSZ022-034>040-054-083-096-NEZ052-066-093-181900-
...KANSAS...SOUTHEAST NEBRASKA AND IOWA...

CITY           SKY/WX    TMP DP  RH WIND       PRES   REMARKS
TOPEKA         SUNNY     63  41  44 S9        30.27F
6HR MIN TEMP:  31; 6HR MAX TEMP:  64;

MANHATTAN      SUNNY     65  40  39 S8        30.24F
EMPORIA        SUNNY     63  41  44 SE13      30.26F
CHANUTE        SUNNY     65  42  43 VRB5      30.27F
WICHITA        MOSUNNY   65  44  46 SE13G20   30.23F
OMAHA          SUNNY     60  33  36 SE13G23   30.23F
LINCOLN        SUNNY     65  37  35 S20G26    30.20F
LAMONI         SUNNY     58  34  40 SE9       30.29F
DES MOINES     MOSUNNY   58  34  40 VRB6      30.32S

$$




USA.gov is the U.S. government's official web portal to all federal, state and local government web resources and services.